Location: *
(47.7167°N, 1.7333°W)
Time: 06:18:13
(UTC+00:00)

STARLINK-1225 - Pass Details

Date: 09 April 2020
Orbit: 549 x 550 km, 53.0° (Epoch: 29 May)

Event Time Altitude Azimuth Distance (km) Brightness Sun altitude
Rises 20:48:59 0° 297° (WNW) 2,727 8.7 -19.1°
Reaches altitude 10° 20:51:14 10° 296° (WNW) 1,831 7.5 -19.4°
Maximum altitude 20:55:23 75° 211° (SSW) 573 3.6 -19.9°
Enters shadow 20:56:06 57° 145° (SE) 649 3.6 -20.0°
